Location: Roanoke
(37.2710°N, 79.9420°W)
Time: 15:38:48
(UTC-05:00)

Transit 2A - Pass Details

Date: 29 November 2019
Orbit: 602 x 957 km, 66.7° (Epoch: 08 December)

Event Time Altitude Azimuth Distance (km) Brightness Sun altitude
Rises 20:06:42 0° 313° (NW) 2,880 9.5 -36.1°
Reaches altitude 10° 20:09:29 10° 295° (WNW) 2,000 8.8 -36.6°
Enters shadow 20:11:45 18° 265° (W) 1,589 8.2 -37.1°
Maximum altitude 20:12:33 18° 251° (WSW) 1,562 - -37.2°
Drops below altitude 10° 20:15:45 10° 208° (SSW) 2,095 - -37.9°
Sets 20:18:46 0° 190° (S) 3,070 - -38.5°
